Regional Weather Roundup
Issued by NWS

Home | Current Version | Previous Version | Graphics & Text | Print | Product List | Glossary On
Versions: 1 2 3 4 5 6 7 8 9 10 11 12 13 14 15 16 17 18 19 20 21 22 23 24 25 26 27 28 29 30 31 32 33 34 35 36 37 38 39 40 41 42 43 44 45 46 47 48 49 50
000
ASUS43 KLMK 291510
RWRKY
KENTUCKY REGIONAL WEATHER ROUNDUP
NATIONAL WEATHER SERVICE LOUISVILLE KY
1100 AM EDT FRI MAY 29 2015

NOTE "FAIR" INDICATES FEW OR NO CLOUDS BELOW 12,000 FEET
WITH NO SIGNIFICANT WEATHER AND/OR OBSTRUCTIONS TO VISIBILITY.

KYZ001>023-026-027-061>063-070>075-291600-
WESTERN AND SOUTH CENTRAL KENTUCKY

CITY           SKY/WX    TMP DP  RH WIND       PRES   REMARKS
PADUCAH        CLOUDY    75  68  78 S5        30.11R
HENDERSON      CLOUDY    72  64  78 S7        30.12S
OWENSBORO      CLOUDY    75  68  79 S12       30.15F
HOPKINSVILLE   CLOUDY    74  67  80 S8        30.15S
BOWLING GREEN  CLOUDY    74  64  71 SW12      30.18R
GLASGOW        CLOUDY    74  64  72 S9        30.18S
$$

KYZ024-025-028>034-038-045-046-053-291600-
NORTH CENTRAL KENTUCKY

CITY           SKY/WX    TMP DP  RH WIND       PRES   REMARKS
LOUISVILLE/SDF CLOUDY    75  67  76 S8        30.17R
LOUISVILLE/LOU MOSUNNY   75  67  76 S9        30.17R
FORT KNOX      PTSUNNY   74  67  78 S9        30.16R
$$

KYZ035>037-039>044-047>052-055>060-089>105-291600-
NORTHEAST KENTUCKY

CITY           SKY/WX    TMP DP  RH WIND       PRES   REMARKS
LEXINGTON      PTSUNNY   76  67  73 S10       30.19S
COVINGTON      CLOUDY    74  67  78 S13       30.17R
FRANKFORT      PTSUNNY   75  66  73 S13       30.17S
$$

KYZ054-064>069-076>088-106>120-291600-
SOUTHEAST KENTUCKY

CITY           SKY/WX    TMP DP  RH WIND       PRES   REMARKS
JACKSON        MOSUNNY   77  67  71 CALM      30.23S
LONDON         SUNNY     78  62  57 S10       30.22F
SOMERSET       PTSUNNY   73  64  73 SW9       30.22S
MIDDLESBORO    MOSUNNY   76  66  71 E6        30.25S
MONTICELLO     MOSUNNY   80  68  67 S12       30.23S
$$



USA.gov is the U.S. government's official web portal to all federal, state and local government web resources and services.